Weather Roundup
Issued by NWS Chicago, IL

Home | Current Version | Previous Version | Graphics & Text | Print | Product List | Glossary On
Versions: 1 2 3 4 5 6 7 8 9 10 11 12 13 14 15 16 17 18 19 20 21 22 23 24 25 26 27 28 29 30 31 32 33 34 35 36 37 38 39 40 41 42 43 44 45 46 47 48 49 50
121
NZUS59 KLOT 251308
HRRLOT

CHICAGO AREA WEATHER ROUNDUP
NATIONAL WEATHER SERVICE CHICAGO/ROMEOVILLE IL
800 AM CDT THU AUG 25 2016

NOTE: "FAIR" INDICATES FEW OR NO CLOUDS BELOW 12,000 FEET WITH NO
SIGNIFICANT WEATHER AND/OR OBSTRUCTIONS TO VISIBILITY.

* THESE STATIONS ARE NOT UNDER NWS QUALITY CONTROL. THEY ALSO MAY NOT
  REPORT WEATHER SUCH AS PRECIPITATION OR FOG.

ILZ005-006-012>014-019>023-251400-
NORTHEAST ILLINOIS

CITY           SKY/WX    TMP DP  RH WIND       PRES   REMARKS
OHARE          CLOUDY    72  69  90 W7        29.98R
MIDWAY         CLOUDY    74  70  87 SW7       29.99R
AURORA         CLOUDY    72  69  90 NW9       30.00S
LANSING*       CLOUDY    70  68  92 W6        30.00S
JOLIET*        CLOUDY    73  72  95 SW6       30.00S
WAUKEGAN       CLOUDY    70  69  97 CALM      29.98S
DUPAGE AIRPORT CLOUDY    71  69  93 SW6       29.99R
WHEELING       CLOUDY    73  69  87 NW6       29.99R
KANKAKEE*      SUNNY     73  70  91 SW7       30.03R
MORRIS*        CLOUDY    72  70  95 SW3       30.00R
LEWIS AIRPORT* CLOUDY    71  69  93 SW7       30.00S
NORTHERLY ISL    N/A     73  69  87 SW2         N/A
$$

WIZ051-052-058>065-066-070>072-251400-
SOUTHEAST WISCONSIN

CITY           SKY/WX    TMP DP  RH WIND       PRES   REMARKS
MILWAUKEE      CLOUDY    71  68  90 NW6       29.98S
KENOSHA*       CLOUDY    69  67  93 NW5       29.99S
RACINE*        LGT RAIN  70  67  90 W3        30.00R
BURLINGTON     CLOUDY    66  66  97 NW3       30.00R
WAUKESHA       PTSUNNY   66  63  88 W3        30.00S
$$

INZ001>003-010>013-019-020-251400-
NORTHWEST INDIANA

CITY           SKY/WX    TMP DP  RH WIND       PRES   REMARKS
GARY*          PTSUNNY   73  72  94 S3        30.00R
MICHIGAN CITY* NOT AVBL
RENSSELAER*    NOT AVBL
VALPARAISO     MOSUNNY   70  68  93 SW8       30.02S
$$

LMZ740>746-251400-
SOUTHERN LAKE MICHIGAN

STATION/POSITION TIME  SKY/WX   TEMP WIND        PRES    VSBY
                                AIR  DIR/SP/G
                 (UTC)          (F)  (DEG/KT/KT) (MB)    (MI)
HARRISON CRIB    1200            74  250/ 10/ 12   N/A
BURNHAM HARBOR   1300            73  210/  3/  8   N/A
CALUMET HARBOR   1200            72  210/  5/  9 1014.8R
BURNS HARBOR     1214            72  200/ 11/ 17 1016.3R
MICHIGAN CITY    1200            71  190/ 13/ 15   N/A
$$

ABBREVIATIONS USED IN REMARKS
   TC - TEMPERATURE IN CELSIUS
  WCI - WIND CHILL INDEX
   HX - HEAT INDEX
  VSB - VISIBILITY
$$




USA.gov is the U.S. government's official web portal to all federal, state and local government web resources and services.